www.pogodaiklimat.ru

АРХИВ ПОГОДЫ в Сан-Франциско

Время (UTC), дата Ветер
(напр.,м/с)
 
Видим.   Явления Облачность Т
(С)
Тd
(С)
f
(%)
Тe
(С)
Тes
(С)
Комфортность

P
(гПа)

Po
(гПа)
Тmin
(С)
Tmax
(С)
R
(мм)
SD
(см)
07:36 21.05 ЮЗ  4 км  дождь  10/10 450 м  +13.3  +10.6  84  +12  +12      1013.4         
07:56 21.05 З  16 км    10/10 390 м  +12.8  +9.4  80  +10  +10    1013.8  1013.4      1.5   
08:56 21.05 ЮЗ  14 км    10/10 390 м  +13.3  +9.4  77  +11  +11    1013.3  1013.1         
09:56 21.05 З  13 км    10/10 540 м  +13.3  +10.0  80  +11  +11    1013.7  1013.4         
10:56 21.05 СЗ  8
{14} 
6 км  слабый дождь  10/10 810 м  +11.7  +8.9  83  +8  +8    1014.0  1013.4  +11.7  +13.3  1.5   
11:56 21.05 З  13 км    8/8 1050 м  +12.2  +8.9  80  +10  +10    1013.9  1013.4         
12:56 21.05 ЮЗ  16 км    8/8 930 м  +12.2  +8.9  80  +11  +11    1013.9  1013.4         
13:17 21.05 З  14 км    8/8 540 м  +12.8  +9.4  80  +10  +10      1013.7         
13:56 21.05 З  6
{10} 
14 км    8/8 630 м  +13.3  +9.4  77  +11  +11    1013.9  1013.4         
14:56 21.05 З  6 км  мгла  10/10 450 м  +12.8  +10.0  83  +10  +10    1014.1  1013.7         
15:56 21.05 З  14 км    8/8 570 м  +13.3  +10.0  80  +11  +11    1014.2  1013.7         
16:56 21.05 З  9
{13} 
14 км    8/8 540 м  +14.4  +10.6  78  +12  +12    1014.0  1013.7  +11.1  +14.4  0.5   
17:43 21.05 З  10
{14} 
14 км    8/8 660 м  +15.0  +9.4  69  +12  +12      1013.7         
17:56 21.05 З  10
{14} 
14 км    10/10 660 м  +13.9  +9.4  74  +11  +11    1013.9  1013.4         
18:56 21.05 З  9
{14} 
14 км    10/10 690 м  +15.6  +9.4  67  +13  +13    1014.2  1013.7         
19:56 21.05 З  11
{14} 
14 км    10/10 690 м  +15.6  +8.9  64  +13  +13    1013.7  1013.4         
20:56 21.05 З  12
{15} 
14 км    8/8 720 м  +15.0  +8.3  64  +12  +12    1013.4  1013.1         
21:56 21.05 З  11
{14} 
13 км    8/8 450 м  +14.4  +10.6  78  +11  +11    1012.9  1012.4         
22:56 21.05 З  11
{16} 
13 км    8/8 450 м  +14.4  +9.4  72  +11  +11    1012.4  1012.1  +13.3  +16.7  0.3   
23:56 21.05 З  11
{15} 
14 км    8/8 450 м  +14.4  +8.9  70  +11  +11    1012.1  1011.7         
00:56 22.05 З  11
{15} 
14 км    8/8 690 м  +13.3  +8.3  72  +10  +10    1011.7  1011.4         
01:56 22.05 З  10
{14} 
13 км    8/8 660 м  +13.3  +8.9  75  +10  +10    1011.8  1011.4         
02:56 22.05 З  5 км  дождь, дымка  10/10 450 м  +12.2  +10.0  86  +9  +9    1011.7  1011.4         
03:05 22.05 З  8 км  дымка  10/10 300 м  +11.7  +10.0  89  +8  +8      1011.4         
03:56 22.05 З  13 км    8/8 660 м  +12.8  +9.4  80  +10  +10    1012.0  1011.7         
04:56 22.05 З  8 км  дымка  10/10 540 м  +11.7  +9.4  86  +8  +8    1012.0  1011.7  +11.7  +15.0  0.8   
05:56 22.05 З  13 км    8/8 510 м  +11.7  +9.4  86  +8  +8    1011.5  1011.0         
06:56 22.05 З  7
{13} 
13 км    10/5 600 м
[средняя] 
+12.2  +9.4  83  +9  +9    1010.7  1010.4         
07:56 22.05 З  13 км    8/8 480 м  +12.2  +9.4  83  +8  +8    1010.1  1009.7         
08:30 22.05 З  10
{13} 
14 км    8/8 630 м  +12.8  +9.4  80  +9  +9      1009.7         
08:56 22.05 З  13 км    8/8 480 м  +12.8  +9.4  80  +9  +9    1009.8  1009.3         
09:53 22.05 З  7
{11} 
13 км    5/5 450 м  +12.0  +9.0  82  +9  +9      1009.3         
09:56 22.05 З  8
{11} 
13 км    5/5 450 м  +12.2  +9.4  83  +9  +9    1009.8  1009.3         
10:56 22.05 З  13 км    5/5 450 м  +11.7  +9.4  86  +8  +8    1009.6  1009.0  +11.1  +12.8     
11:56 22.05 З  11 км    5/5 450 м  +11.1  +8.9  86  +9  +9    1009.7  1009.3         
12:56 22.05 З  16 км    2/2 300 м
[средняя] 
+11.1  +8.9  86  +9  +9    1009.9  1009.7         
13:56 22.05 СЗ  16 км    2/2 300 м
[средняя] 
+13.3  +8.3  72  +11  +12    1010.6  1010.4         
14:56 22.05 С  16 км    2/2 750 м
[средняя] 
+14.4  +8.9  70  +13  +15    1010.8  1010.4         
15:56 22.05 С  16 км    2/2 900 м
[средняя] 
+15.6  +9.4  67  +15  +19    1010.5  1010.0         
16:56 22.05 СЗ  16 км    5/2 900 м
[средняя] 
+17.8  +10.0  60  +18  +23    1010.4  1010.0  +11.1  +17.8     
17:56 22.05 З  16 км    2/2 900 м
[средняя] 
+18.3  +9.4  56  +18  +22    1010.5  1010.0         
18:56 22.05 З  6
{10} 
16 км    2/2 1050 м
[средняя] 
+18.3  +8.9  54  +18  +22    1010.5  1010.0         
19:56 22.05 З  16 км    8/2 1050 м
[средняя] 
+18.3  +8.9  54  +18  +18    1010.5  1010.0         
20:56 22.05 З  10  16 км    8/2 540 м
[средняя] 
+18.9  +10.6  59  +18  +18    1010.1  1009.7         
21:56 22.05 З  16 км    8/2 540 м
[средняя] 
+18.3  +10.6  61  +17  +17    1009.6  1009.0         
22:56 22.05 З  16 км    8/2 450 м
[средняя] 
+16.7  +10.6  67  +15  +15    1008.9  1008.7  +16.7  +19.4     
23:56 22.05 З  10
{12} 
16 км    8/2 300 м
[средняя] 
+17.8  +11.1  65  +16  +16    1008.8  1008.3         
00:56 23.05 З  16 км    8/2 300 м
[средняя] 
+16.1  +11.1  72  +14  +14    1008.8  1008.3         

 

Местоположение метеостанции San Francisco International Airport: широта 37.6196 долгота -122.3656 высота над уровнем моря 3 м.

В архиве по умолчанию представлена погода в Сан-Франциско за последние 1-2 суток. Обновление информации о фактической погоде в базе происходит ежечасно! Архивные данные за месяц целиком и за предыдущие месяцы Вы можете получить, выбрав интересующий диапазон дат из раскрывающегося списка и нажав кнопку "Ввод!".

Внимание! Архив погоды МЕТАР в базе сайта в настоящее время начинается c 1 января 2011 г. Нет смысла пытаться выбрать более раннюю дату.

Внимание! Время в таблицах - всемирное. Для получения местного времени необходимо прибавить поправку, которая в Сан-Франциско равна -8 ч.

Ветер - указаны скорость ветра в м/с и направление, откуда дует ветер: С - северный, СВ - северо-восточный, В - восточный, ЮВ - юго-восточный, Ю - южный, ЮЗ - юго-западный, З - западный, СЗ - северо-западный.
Видимость - горизонтальная дальность видимости в метрах или километрах. При видимости от 1 до 10 км при отсутствии осадков обычно наблюдается дымка, при ухудшении видимости до 1 км и менее - туман. В сухую погоду видимость может ухудшаться дымом, пылью или мглою.
Атмосферные явления - указаны явления, наблюдавшиеся в указанный момент времени.
Облачность - указаны через наклонную черту верхняя и нижняя облачность в баллах и высота нижней границы облаков в метрах. Внимание: облачность, как и прочие метеорологические величины в США измеряются автоматическими метеостанциями. Указанные значения в баллах носят условный характер и показывают процент времени, в течение которого, в среднем, лазерный луч высотомера отражался от облаков обратно.
T - Температура воздуха - температура, измеренная на высоте 2 м над землей.
Td - Температура точки росы - температура, при понижении до которой содержащийся в воздухе водяной пар достигнет насыщения.
f - Относительная влажность воздуха - влажноcть воздуха, измеренная на высоте 2 м над землей.
Te - Эффективная температура - температура, которую ощущает одетый по сезону человек в тени. Характеристика душности погоды. При расчете учитывается влияние влажности воздуха и скорости ветра на теплоощущения человека.
Tes - Эффективная температура на солнце - температура, которую ощущает человек, с поправкой на солнечный нагрев. Характеристика знойности погоды. Зависит от высоты солнца над горизонтом, облачности и скорости ветра. Ночью, в пасмурную погоду, а также при ветре 12 м/с и более поправка равна нулю.
P - Атмосферное давление - приведенное к уровню моря атмосферное давление.
Po - Атмосферное давление - измеренное на уровне метеостанции атмосферное давление.
Tmin - Минимальная температура - минимум температуры воздуха на высоте 2 м над землей.
Tmax - Максимальная температура - максимум температуры воздуха на высоте 2 м над землей.
R - Количество осадков - Количество выпавших осадков за 3 или 6 часов, мм.
SD - Снежный покров - Высота снежного покрова, см.